Location: B�rgermoos
(47.6500°N, 9.0667°E)
Time: 07:10:09
(UTC+00:00)

Vanguard 3 - Pass Details

Date: 11 August 2021
Orbit: 510 x 3260 km, 33.3° (Epoch: 16 September)

Event Time Altitude Azimuth Distance (km) Brightness Sun altitude
Rises 21:02:58 0° 271° (W) 6,214 12.2 -19.4°
Reaches altitude 10° 21:08:34 10° 256° (WSW) 5,599 11.7 -20.0°
Maximum altitude 21:19:14 20° 219° (SW) 5,289 11.1 -21.0°
Enters shadow 21:29:30 12° 186° (S) 6,006 11.1 -21.9°
